When you browse on this site, cookies collect data to enhance your experience and personalize the content and advertising you see.
Visit our Privacy Policy to learn more. By continuing to use the site, you agree to this use of cookies and data.
EN

Hourly Weather Artashat

Today, 7 July, Tuesday

Time Temperature Precipitation Wind Pressure Humidity
00:00 +18°C° 0 mm 1 mps 601 mmHg 48%
01:00 +16°C° 0 mm 1 mps 600 mmHg 49%
02:00 +15°C° 0 mm 1 mps 600 mmHg 51%
03:00 +15°C° 0 mm 1 mps 600 mmHg 53%
04:00 +15°C° 0 mm 0 mps 600 mmHg 52%
05:00 +15°C° 0 mm 0 mps 600 mmHg 52%
06:00 +16°C° 0 mm 0 mps 601 mmHg 52%
07:00 +19°C° 0 mm 1 mps 601 mmHg 46%
08:00 +20°C° 0 mm 2 mps 602 mmHg 40%
09:00 +21°C° 0 mm 2 mps 602 mmHg 34%
10:00 +22°C° 0 mm 3 mps 602 mmHg 32%
11:00 +24°C° 0 mm 3 mps 603 mmHg 30%
12:00 +25°C° 0 mm 3 mps 603 mmHg 29%
13:00 +26°C° 0 mm 3 mps 603 mmHg 28%
14:00 +26°C° 0 mm 3 mps 603 mmHg 27%
15:00 +27°C° 0 mm 3 mps 603 mmHg 26%
16:00 +27°C° 0 mm 3 mps 603 mmHg 27%
17:00 +26°C° 0 mm 2 mps 603 mmHg 28%
18:00 +26°C° 0 mm 2 mps 602 mmHg 29%
19:00 +24°C° 0 mm 2 mps 602 mmHg 33%
20:00 +23°C° 0 mm 1 mps 602 mmHg 37%
21:00 +21°C° 0 mm 1 mps 601 mmHg 41%
22:00 +21°C° 0 mm 1 mps 601 mmHg 43%
23:00 +20°C° 0 mm 1 mps 601 mmHg 44%

Tomorrow, 8 July, Wednesday

Time Temperature Precipitation Wind Pressure Humidity
00:00 +17°C° 0 mm 0 mps 601 mmHg 46%
01:00 +17°C° 0 mm 0 mps 600 mmHg 47%
02:00 +16°C° 0 mm 0 mps 600 mmHg 48%
03:00 +16°C° 0 mm 0 mps 600 mmHg 50%
04:00 +16°C° 0 mm 0 mps 600 mmHg 50%
05:00 +17°C° 0 mm 0 mps 601 mmHg 51%
06:00 +18°C° 0 mm 0 mps 601 mmHg 51%
07:00 +21°C° 0 mm 1 mps 602 mmHg 46%
08:00 +23°C° 0 mm 1 mps 602 mmHg 40%
09:00 +24°C° 0 mm 2 mps 603 mmHg 34%
10:00 +25°C° 0 mm 2 mps 603 mmHg 32%
11:00 +26°C° 0 mm 2 mps 603 mmHg 30%
12:00 +28°C° 0 mm 3 mps 603 mmHg 28%
13:00 +28°C° 0 mm 3 mps 603 mmHg 29%
14:00 +28°C° 0 mm 3 mps 603 mmHg 30%
15:00 +27°C° 0 mm 3 mps 603 mmHg 31%
16:00 +27°C° 0 mm 3 mps 602 mmHg 32%
17:00 +27°C° 0 mm 3 mps 602 mmHg 33%
18:00 +27°C° 0 mm 3 mps 602 mmHg 33%
19:00 +25°C° 0 mm 2 mps 602 mmHg 36%
20:00 +24°C° 0 mm 2 mps 602 mmHg 39%
21:00 +21°C° 0 mm 2 mps 602 mmHg 42%
22:00 +22°C° 0 mm 1 mps 602 mmHg 44%
23:00 +21°C° 0 mm 1 mps 601 mmHg 46%

Day after tomorrow, 9 July, Thursday

Time Temperature Precipitation Wind Pressure Humidity
00:00 +20°C° 0 mm 1 mps 601 mmHg 48%
01:00 +19°C° 0 mm 1 mps 601 mmHg 50%
02:00 +19°C° 0 mm 1 mps 601 mmHg 53%
03:00 +18°C° 0 mm 1 mps 601 mmHg 55%
04:00 +18°C° 0 mm 1 mps 601 mmHg 56%
05:00 +19°C° 0 mm 1 mps 601 mmHg 57%
06:00 +19°C° 0 mm 1 mps 602 mmHg 59%
07:00 +19°C° 0 mm 2 mps 602 mmHg 54%
08:00 +21°C° 0 mm 2 mps 603 mmHg 49%
09:00 +23°C° 0 mm 2 mps 603 mmHg 45%
10:00 +24°C° 0 mm 3 mps 604 mmHg 42%
11:00 +26°C° 0 mm 3 mps 604 mmHg 39%
12:00 +27°C° 0 mm 4 mps 604 mmHg 36%
13:00 +27°C° 0 mm 3 mps 604 mmHg 36%
14:00 +27°C° 0 mm 3 mps 604 mmHg 35%
15:00 +27°C° 0 mm 3 mps 603 mmHg 35%
16:00 +26°C° 0 mm 3 mps 603 mmHg 38%
17:00 +25°C° 0 mm 4 mps 603 mmHg 41%
18:00 +25°C° 0 mm 4 mps 603 mmHg 44%
19:00 +22°C° 0.1 mm 3 mps 603 mmHg 49%
20:00 +21°C° 0.1 mm 2 mps 603 mmHg 54%
21:00 +19°C° 0.1 mm 2 mps 603 mmHg 59%
22:00 +20°C° 0 mm 1 mps 603 mmHg 60%
23:00 +19°C° 0 mm 1 mps 603 mmHg 62%

10 July, Friday

Time Temperature Precipitation Wind Pressure Humidity
00:00 +19°C° 0 mm 1 mps 603 mmHg 64%
01:00 +18°C° 0 mm 1 mps 603 mmHg 66%
02:00 +18°C° 0 mm 1 mps 602 mmHg 68%
03:00 +16°C° 0 mm 1 mps 602 mmHg 70%
04:00 +18°C° 0.3 mm 1 mps 602 mmHg 68%
05:00 +18°C° 0.3 mm 1 mps 603 mmHg 67%
06:00 +19°C° 0.3 mm 1 mps 603 mmHg 66%
07:00 +19°C° 0.3 mm 1 mps 603 mmHg 63%
08:00 +20°C° 0.3 mm 1 mps 603 mmHg 60%
09:00 +20°C° 0.3 mm 2 mps 604 mmHg 57%
10:00 +21°C° 0.1 mm 2 mps 604 mmHg 53%
11:00 +22°C° 0.1 mm 3 mps 604 mmHg 50%
12:00 +24°C° 0.1 mm 3 mps 604 mmHg 47%
13:00 +25°C° 0.2 mm 4 mps 604 mmHg 44%
14:00 +25°C° 0.2 mm 4 mps 604 mmHg 42%
15:00 +26°C° 0.2 mm 5 mps 604 mmHg 39%
16:00 +26°C° 0 mm 4 mps 604 mmHg 39%
17:00 +26°C° 0 mm 3 mps 604 mmHg 39%
18:00 +25°C° 0 mm 2 mps 604 mmHg 39%
19:00 +24°C° 0.2 mm 1 mps 604 mmHg 47%
20:00 +22°C° 0.2 mm 1 mps 604 mmHg 54%
21:00 +20°C° 0.2 mm 1 mps 603 mmHg 62%
22:00 +20°C° 0.5 mm 1 mps 603 mmHg 66%
23:00 +19°C° 0.5 mm 1 mps 603 mmHg 70%

11 July, Saturday

Time Temperature Precipitation Wind Pressure Humidity
00:00 +18°C° 0.5 mm 1 mps 603 mmHg 74%
01:00 +16°C° 0.1 mm 1 mps 602 mmHg 75%
02:00 +15°C° 0.1 mm 0 mps 602 mmHg 76%
03:00 +15°C° 0.1 mm 0 mps 602 mmHg 78%
04:00 +15°C° 0.3 mm 0 mps 602 mmHg 77%
05:00 +15°C° 0.3 mm 0 mps 602 mmHg 76%
06:00 +15°C° 0.3 mm 0 mps 602 mmHg 76%
07:00 +18°C° 0.2 mm 1 mps 602 mmHg 71%
08:00 +20°C° 0.2 mm 1 mps 603 mmHg 66%
09:00 +20°C° 0.2 mm 2 mps 603 mmHg 62%
10:00 +21°C° 0.3 mm 2 mps 603 mmHg 57%
11:00 +23°C° 0.3 mm 2 mps 603 mmHg 52%
12:00 +25°C° 0.3 mm 3 mps 604 mmHg 47%
13:00 +25°C° 0.2 mm 3 mps 604 mmHg 45%
14:00 +26°C° 0.2 mm 3 mps 604 mmHg 43%
15:00 +26°C° 0.2 mm 3 mps 604 mmHg 41%
16:00 +25°C° 0.5 mm 2 mps 603 mmHg 43%
17:00 +24°C° 0.5 mm 2 mps 603 mmHg 46%
18:00 +23°C° 0.5 mm 1 mps 602 mmHg 48%
19:00 +22°C° 0.4 mm 1 mps 602 mmHg 53%
20:00 +20°C° 0.4 mm 2 mps 602 mmHg 57%
21:00 +19°C° 0.4 mm 2 mps 602 mmHg 62%
22:00 +19°C° 0.3 mm 1 mps 601 mmHg 66%
23:00 +19°C° 0.3 mm 1 mps 601 mmHg 69%

12 July, Sunday

Time Temperature Precipitation Wind Pressure Humidity
00:00 +16°C° 0.3 mm 0 mps 601 mmHg 73%
01:00 +16°C° 0 mm 0 mps 600 mmHg 74%
02:00 +15°C° 0 mm 0 mps 600 mmHg 75%
03:00 +15°C° 0 mm 0 mps 600 mmHg 77%
04:00 +15°C° 0 mm 0 mps 600 mmHg 74%
05:00 +15°C° 0 mm 0 mps 600 mmHg 72%
06:00 +16°C° 0 mm 0 mps 601 mmHg 70%
07:00 +19°C° 0.1 mm 1 mps 601 mmHg 66%
08:00 +20°C° 0.1 mm 1 mps 601 mmHg 61%
09:00 +20°C° 0.1 mm 2 mps 601 mmHg 57%
10:00 +21°C° 0.2 mm 2 mps 601 mmHg 53%
11:00 +23°C° 0.2 mm 2 mps 602 mmHg 48%
12:00 +25°C° 0.2 mm 3 mps 602 mmHg 44%
13:00 +25°C° 0.2 mm 2 mps 602 mmHg 43%
14:00 +25°C° 0.2 mm 2 mps 602 mmHg 41%
15:00 +26°C° 0.2 mm 2 mps 601 mmHg 40%
16:00 +25°C° 0.3 mm 2 mps 601 mmHg 41%
17:00 +25°C° 0.3 mm 2 mps 601 mmHg 42%
18:00 +25°C° 0.3 mm 2 mps 601 mmHg 43%
19:00 +23°C° 0.2 mm 1 mps 601 mmHg 49%
20:00 +22°C° 0.2 mm 1 mps 601 mmHg 54%
21:00 +21°C° 0.2 mm 1 mps 601 mmHg 59%
22:00 +20°C° 0.3 mm 1 mps 600 mmHg 62%
23:00 +19°C° 0.3 mm 1 mps 600 mmHg 64%
Show more